Theta_e
319 318 318 318 319 322 327 330 334 336 337 349 353 353 355 357 355 357 356 356 353 351 348 348 348 347 347 347 347 346 346 345 346 346 347 345 346 347 347 348 346 347 347 344
323 323 320 321 322 322 325 329 333 335 336 336 350 353 352 354 353 354 354 351 353 352 350 348 348 348 347 346 348 347 347 345 344 344 344 345 344 346 347 347 345 348 348 349
324 328 324 325 325 326 326 327 331 334 334 333 351 355 352 350 347 348 352 351 350 349 351 350 348 349 349 346 347 347 348 346 347 346 345 344 343 343 348 349 345 347 349 351
325 326 328 328 329 327 327 327 330 333 333 336 335 362 354 352 349 352 351 352 350 348 345 349 349 349 349 347 347 346 348 348 348 348 347 346 348 350 349 349 345 344 350 351
321 329 329 331 331 329 328 327 329 331 332 332 334 347 354 352 352 352 352 351 347 345 346 345 349 350 349 347 346 347 349 349 349 349 349 348 349 351 351 349 346 345 348 351
320 321 330 331 331 331 328 328 329 330 327 332 333 332 346 356 352 350 349 349 347 340 342 343 347 348 348 347 347 347 350 350 350 350 350 349 348 348 351 349 348 345 344 347
324 323 322 331 332 330 331 327 331 330 330 331 329 329 331 348 349 348 347 349 346 341 341 344 345 345 346 348 348 346 350 352 351 350 351 349 349 348 347 347 347 348 344 345
322 324 323 323 331 333 330 330 328 332 329 329 324 328 328 341 344 346 345 346 345 343 343 344 345 345 347 348 349 348 348 351 352 351 351 351 350 349 349 348 348 345 345 345
320 322 325 326 325 331 331 331 323 320 320 322 323 324 325 326 341 346 347 346 345 343 343 345 345 346 346 348 349 350 349 349 352 352 352 352 351 350 349 349 347 346 347 343
318 322 322 325 327 328 330 323 325 317 325 324 322 323 326 324 323 335 343 347 345 343 345 346 346 346 346 348 349 351 350 349 351 353 352 351 352 352 351 349 348 346 345 349
314 317 323 321 326 330 325 328 324 322 318 323 323 324 322 322 322 323 333 345 345 346 347 348 346 346 346 346 349 351 352 351 351 352 354 353 351 350 354 355 350 347 348 350
315 320 323 322 322 324 330 321 321 324 320 318 320 325 326 324 323 324 324 340 344 348 349 348 346 346 345 345 347 350 352 352 352 352 353 355 354 353 350 352 357 354 350 347
315 322 321 323 320 321 322 329 319 316 316 319 323 325 322 322 324 326 326 330 347 349 349 348 346 345 345 345 346 349 352 353 353 353 353 354 356 356 355 351 350 354 355 352
313 316 319 322 324 321 322 323 322 321 322 321 322 323 324 324 325 326 325 329 341 348 349 348 347 346 345 345 345 347 349 353 354 355 355 355 355 357 357 355 354 351 351 355
311 315 313 314 316 319 323 327 325 321 321 323 322 324 323 322 328 327 328 330 339 348 348 349 348 347 346 345 345 346 348 352 355 356 357 357 356 357 358 359 358 356 353 352
310 313 312 313 322 326 329 330 329 324 322 323 321 323 322 326 331 333 332 333 342 347 349 349 349 348 347 346 345 346 346 350 354 356 357 357 359 359 359 360 361 360 358 355
310 310 311 317 325 330 332 330 331 325 323 323 324 322 329 335 331 330 333 335 335 341 348 349 349 348 347 347 346 345 346 347 354 356 357 359 359 361 361 361 361 362 362 360
312 309 309 317 323 334 328 322 323 332 331 330 336 331 330 339 343 342 340 340 341 340 339 338 340 345 348 348 346 346 346 347 349 356 358 359 361 361 362 362 362 362 363 363
310 310 310 322 326 331 324 323 323 324 331 325 329 336 342 342 342 342 340 341 342 342 342 340 339 341 347 350 349 347 347 347 349 350 351 359 361 362 362 363 364 363 364 364
311 312 311 316 329 333 325 322 322 328 329 322 324 326 337 337 342 337 333 339 338 338 340 345 347 348 347 343 351 351 350 349 349 350 352 352 356 361 363 363 363 364 364 364
314 314 317 318 328 331 319 321 325 332 329 320 320 321 324 328 327 326 328 328 334 336 338 341 345 348 353 353 344 350 354 354 355 353 352 355 355 356 360 362 363 363 364 364
318 320 318 319 328 329 316 320 320 317 318 319 317 317 318 319 325 323 322 323 324 333 333 335 339 348 351 363 357 350 347 347 352 357 357 358 359 358 359 361 362 363 363 364
315 314 316 316 320 317 317 319 318 315 315 315 316 315 315 317 321 322 321 320 320 320 323 331 333 342 346 352 361 362 363 362 359 356 360 359 360 362 362 363 362 363 364 364
311 310 311 309 315 312 312 315 313 311 313 312 312 315 315 315 318 320 319 318 319 319 319 322 330 333 336 340 351 354 360 356 358 362 356 355 362 361 362 364 364 364 365 365
310 309 310 309 309 310 311 312 311 310 311 311 311 312 315 315 318 318 317 317 318 319 318 319 323 332 332 333 338 348 359 356 353 352 358 365 358 361 363 362 364 365 366 366
309 310 311 312 309 310 310 310 310 310 311 311 311 311 313 314 317 316 316 317 317 318 317 317 320 327 332 333 335 340 347 355 355 353 353 361 364 366 364 359 353 358 364 366
Wind_Speed
9 11 18 24 16 5 5 7 10 7 9 22 18 20 26 24 18 21 20 22 22 24 27 32 33 36 33 30 40 42 42 44 41 36 32 28 25 21 17 12 16 19 17 14
4 20 19 8 10 11 15 10 13 15 15 7 23 22 23 22 22 25 22 21 22 20 21 27 33 34 35 32 40 39 42 46 43 39 36 33 32 25 21 17 15 18 21 17
20 7 18 15 16 16 16 15 14 9 8 6 22 12 17 10 9 13 13 20 23 26 25 26 29 36 35 33 42 42 45 48 46 40 35 32 30 28 24 22 21 17 23 20
16 21 18 20 21 20 18 19 18 14 8 7 8 8 17 19 20 14 19 21 19 19 15 25 29 36 39 38 42 42 46 48 46 43 38 35 29 26 31 29 25 21 24 23
22 21 24 22 27 19 19 10 15 17 6 1 13 5 8 20 21 18 23 24 21 19 21 18 27 41 43 40 40 43 46 47 45 45 41 39 31 33 29 29 26 24 24 26
16 13 21 25 18 19 13 11 10 11 4 9 20 7 7 19 30 28 28 26 25 15 20 19 31 37 40 42 42 40 41 46 46 47 43 40 36 36 30 26 29 28 26 28
20 24 23 14 19 13 16 7 8 5 7 9 12 5 8 31 33 33 33 29 28 20 20 19 23 26 38 41 41 41 42 38 43 45 44 42 40 36 35 32 29 29 31 30
16 19 25 17 15 18 12 16 6 10 5 11 6 8 7 26 35 33 31 32 32 21 19 23 24 31 37 41 43 43 42 40 43 45 45 44 42 38 36 34 29 32 29 29
9 20 8 26 21 18 14 17 10 5 1 3 5 5 5 8 14 25 27 23 22 21 21 25 24 34 35 39 43 45 43 43 43 44 41 44 46 42 41 39 36 32 26 29
5 9 15 27 16 22 23 8 10 4 11 5 6 6 9 8 10 18 22 28 30 25 24 25 23 32 38 40 44 45 45 45 44 42 41 38 42 43 42 40 37 34 34 27
11 5 11 2 15 27 5 18 7 6 6 8 4 9 7 10 11 11 17 27 28 25 26 26 25 36 41 40 41 43 43 43 41 39 38 38 39 41 41 39 41 40 34 30
9 5 6 13 13 2 25 7 12 9 10 4 4 13 5 11 12 15 14 26 27 27 30 29 27 32 36 37 38 40 41 41 42 42 40 40 38 36 37 41 40 40 39 38
8 3 8 8 4 3 5 13 9 6 7 10 11 10 4 8 8 15 23 20 27 31 30 26 24 24 29 36 37 39 39 42 41 40 39 35 34 35 37 41 42 42 41 40
10 4 10 8 6 10 4 11 8 16 9 10 11 12 8 14 15 10 13 16 29 29 30 27 24 24 29 37 38 39 40 40 39 38 38 38 38 37 38 42 40 41 43 42
2 7 7 17 26 24 23 12 13 12 12 13 11 8 9 10 11 7 8 12 21 27 28 27 26 24 21 30 35 35 37 39 41 40 38 38 38 38 38 36 40 41 41 42
4 5 11 17 16 17 17 7 7 15 11 6 7 8 9 5 9 4 8 15 19 26 29 29 27 27 23 30 35 36 37 39 40 39 39 39 36 37 37 38 37 38 39 40
4 3 6 6 9 6 4 8 1 8 10 11 7 9 2 2 8 10 7 11 11 10 25 29 27 25 22 33 38 36 38 36 36 37 37 35 36 36 38 37 36 35 36 38
7 7 4 5 8 6 5 20 15 17 18 18 10 6 8 13 16 21 17 16 17 17 12 8 7 12 25 29 33 33 31 35 35 33 34 34 35 36 35 34 35 35 33 34
10 3 4 2 4 2 9 15 11 7 12 20 17 3 18 17 27 16 15 13 13 13 9 10 16 16 17 15 23 26 27 29 29 32 34 36 37 35 34 33 34 35 32 32
7 11 6 4 2 3 13 26 29 7 12 22 21 19 6 10 14 4 10 11 14 14 13 13 20 24 26 15 19 26 27 29 32 34 34 34 34 37 37 37 35 36 35 34
4 4 4 4 2 5 26 34 15 11 4 11 18 16 18 17 6 1 10 15 13 15 17 19 23 22 24 22 18 11 17 22 26 24 26 32 38 38 38 36 34 32 32 31
2 3 5 7 6 5 20 13 10 7 13 11 10 10 10 7 9 12 13 14 16 15 18 21 20 20 24 30 26 15 10 2 7 27 25 33 33 33 31 33 31 30 29 28
4 3 1 2 2 4 1 6 9 11 11 13 16 13 7 8 8 11 10 11 12 13 16 19 18 17 24 28 29 23 22 15 6 2 16 25 31 35 34 33 30 27 28 27
7 13 2 6 5 5 9 8 7 15 15 14 14 15 14 6 8 8 9 9 10 12 14 20 19 17 17 24 23 22 17 18 17 13 10 9 13 24 30 30 29 27 25 25
6 4 11 6 2 11 5 7 15 22 19 17 15 14 15 10 7 6 7 7 8 11 18 20 18 16 20 23 21 22 17 17 19 19 16 15 15 16 21 26 25 25 27 29
10 6 4 4 11 12 17 22 17 17 21 20 12 16 18 8 7 6 6 6 9 12 24 23 24 22 25 27 27 21 20 19 18 21 21 20 19 18 21 25 21 21 24 28
Wind_Direction
195 193 206 213 210 233 250 216 251 264 203 195 191 170 183 178 190 178 184 191 193 196 192 202 197 201 204 194 189 188 189 196 197 196 198 199 202 197 201 205 209 211 203 197
158 218 217 192 210 210 236 242 253 268 269 171 189 183 182 176 190 180 179 188 193 191 193 201 202 203 205 191 189 189 191 194 199 201 207 206 205 208 208 217 215 210 206 200
209 233 210 201 224 220 222 227 243 233 286 304 160 166 159 197 212 209 213 205 185 182 187 196 200 202 204 192 188 189 191 195 198 201 203 207 211 216 218 223 218 206 206 203
226 237 198 212 220 209 221 225 240 248 247 253 186 168 196 179 212 215 211 224 200 191 174 194 198 197 202 198 191 190 192 196 197 199 198 199 198 206 215 217 217 210 207 207
223 200 220 216 218 205 224 218 233 241 229 260 258 117 207 184 200 216 222 222 212 200 184 190 200 195 200 195 191 190 192 194 195 199 201 199 198 209 214 218 219 219 210 212
233 242 210 228 227 222 206 213 248 241 186 242 253 158 181 185 206 209 220 219 214 208 204 192 196 194 193 192 190 188 187 192 195 199 202 203 204 210 210 212 219 221 220 216
232 236 237 223 220 223 218 153 223 256 226 230 243 183 217 200 209 204 206 210 212 217 206 196 193 183 186 187 188 188 189 190 195 198 203 209 212 215 214 215 217 218 220 222
216 234 217 217 214 206 214 207 163 209 196 229 163 211 249 194 206 216 206 200 201 201 196 196 199 190 183 185 186 189 190 193 195 199 202 207 214 215 218 217 217 221 221 226
331 234 248 222 218 195 203 213 184 143 244 150 225 230 284 203 191 205 207 207 218 210 200 196 198 195 187 185 187 189 192 195 196 199 200 205 210 213 218 222 225 226 226 228
304 292 236 231 213 223 210 166 188 177 223 236 276 219 214 225 208 206 198 196 209 202 197 197 196 194 192 190 190 190 193 195 198 200 201 203 207 213 219 222 224 226 228 228
317 259 299 267 215 215 195 207 198 158 157 216 224 255 191 223 227 186 195 194 200 197 191 197 196 195 196 192 189 191 193 195 198 199 202 205 210 213 216 220 225 226 225 225
319 285 283 240 237 269 214 192 197 203 213 208 179 254 213 218 223 231 210 196 195 194 192 196 192 192 193 192 191 191 194 195 196 198 201 206 209 212 213 219 223 226 229 228
348 344 314 305 21 276 208 218 208 159 140 205 211 245 233 251 241 233 218 177 190 191 196 194 187 188 191 193 190 192 193 196 196 196 200 203 205 208 214 221 223 227 230 232
5 261 254 278 296 329 257 226 203 192 197 192 214 257 294 287 295 282 183 163 179 185 187 185 187 187 191 192 191 192 195 194 193 194 198 201 204 206 211 222 224 225 229 231
355 269 263 268 277 272 260 257 208 195 186 195 212 205 245 263 270 233 154 138 164 176 178 181 185 186 188 190 193 195 195 191 191 193 197 202 205 207 210 215 223 229 228 230
232 267 305 290 257 220 239 249 260 209 180 179 167 225 227 263 289 96 132 143 165 176 179 183 184 183 182 186 192 192 192 193 191 194 199 202 202 205 208 211 216 222 225 228
202 256 346 269 320 186 78 342 336 203 184 183 183 226 186 107 358 9 90 99 111 158 184 183 184 184 185 186 190 192 192 190 191 195 201 202 202 204 209 210 211 214 217 223
209 243 208 268 316 148 127 34 29 77 42 14 340 301 114 103 75 47 30 80 86 98 92 93 142 177 189 190 188 192 186 190 192 194 199 201 201 206 209 208 210 215 216 218
206 243 269 291 271 226 22 11 341 343 37 9 346 103 124 111 75 38 16 30 60 68 70 70 75 99 118 154 179 181 184 192 195 201 200 200 201 204 206 207 211 215 216 219
217 247 231 307 335 51 10 333 331 141 39 358 11 20 46 111 83 23 357 36 46 48 50 60 67 71 69 65 170 176 188 192 201 204 207 205 202 204 207 210 211 214 216 220
268 264 241 244 72 65 359 347 16 64 27 8 16 26 38 62 68 31 45 42 45 50 41 42 56 61 50 59 72 115 181 198 214 219 214 211 208 210 213 213 214 214 216 220
29 14 2 336 51 30 350 346 61 330 2 12 18 27 30 39 47 49 42 38 38 38 39 35 43 43 43 47 58 58 66 124 206 218 213 220 216 214 216 214 215 215 214 218
48 88 297 21 159 224 76 282 285 15 9 1 358 346 33 34 42 47 36 30 28 33 32 32 41 39 38 41 43 49 33 29 34 155 223 224 223 223 217 212 209 208 211 217
24 12 41 317 167 328 306 284 6 1 349 348 343 330 343 33 45 52 39 26 24 20 18 16 23 33 28 27 34 32 29 26 18 359 328 301 250 233 224 220 213 207 207 214
19 330 321 264 300 335 313 335 327 322 325 323 324 333 349 14 49 50 33 25 20 16 12 13 16 9 7 11 18 23 22 12 5 350 328 303 285 260 228 218 211 210 214 215
352 330 330 266 296 274 264 278 287 307 303 295 313 322 329 352 28 49 28 15 19 13 2 2 357 353 354 355 356 2 7 359 347 336 321 306 294 278 225 209 210 216 218 224